Regional Weather Roundup
Issued by NWS

Home | Current Version | Previous Version | Text Only | Print | Product List | Glossary Off
Versions: 1 2 3 4 5 6 7 8 9 10 11 12 13 14 15 16 17 18 19 20 21 22 23 24 25 26 27 28 29 30 31 32 33 34 35 36 37 38 39 40 41 42 43 44 45 46 47 48 49 50

000
ASUS43 KDMX 121306
RWRIA

WEATHER ROUNDUP FOR IOWA
NATIONAL WEATHER SERVICE DES MOINES IA
700 AM CST TUE DEC 12 2017

NOTE: "FAIR" INDICATES FEW OR NO CLOUDS BELOW 12,000 FEET WITH NO
SIGNIFICANT WEATHER AND/OR OBSTRUCTIONS TO VISIBILITY.

* - THESE STATIONS ARE NOT NWS STATIONS...THUS NOT UNDER NWS
QUALITY CONTROL.  THEY ALSO DO NOT REPORT WEATHER SUCH
AS PRECIPITATION OR FOG.

IAZ001>003-012>014-020>022-031>034-043>046-121400-
   NORTHWEST IOWA

CITY           SKY/WX    TMP DP  RH WIND       PRES   REMARKS
CARROLL *      CLOUDY    14  10  85 W9        30.28F WCI   2
CHEROKEE *     CLOUDY    12  10  92 W5        30.29F WCI   4
DENISON *      CLOUDY    14  12  92 W7        30.31F WCI   4
LE MARS *      CLOUDY    14  10  85 CALM      30.31R
ORANGE CITY *  CLOUDY    10  10 100 W7        30.27S WCI   0
SHELDON *      CLOUDY    10   9  92 W7        30.26S WCI   0
SIOUX CITY     CLOUDY    13  10  88 W6        30.32F WCI   4
SPENCER        CLOUDY    10   7  87 W12       30.27R WCI  -5
STORM LAKE *   CLOUDY    10   9  92 W10       30.26S WCI  -3
$$

IAZ055>058-069>071-079>083-090>094-121400-
   SOUTHWEST IOWA

CITY           SKY/WX    TMP DP  RH WIND       PRES   REMARKS
ATLANTIC *     CLOUDY    14  10  85 NW6       30.31S WCI   5
AUDUBON *      CLOUDY    16  10  79 NW6       30.28F WCI   7
CLARINDA *     CLOUDY    16  12  86 NW3       30.35F
COUNCIL BLFS * CLOUDY    16  16 100 NW3       30.32S
CRESTON *      CLOUDY    12   9  85 NW8       30.30R WCI   1
HARLAN  *      CLOUDY    14  12  92 NW6       30.34S WCI   5
LAMONI         CLEAR     12   7  80 W6        30.29R WCI   3
RED OAK *      CLOUDY    14  12  92 CALM      30.34S
SHENANDOAH *   CLOUDY    16  14  93 W7        30.35F WCI   6
$$

IAZ047>049-059>061-072>074-084-121400-
   CENTRAL IOWA

CITY           SKY/WX    TMP DP  RH WIND       PRES   REMARKS
AMES           CLOUDY    13   8  81 NW7       30.27R WCI   3
ANKENY *       CLEAR     14   9  79 NW8       30.29S WCI   3
BOONE *        CLOUDY    12   9  85 W8        30.25S WCI   1
CHARITON *     CLEAR     14   9  79 NW8       30.27R WCI   3
DES MOINES     CLEAR     15   8  73 NW10      30.28S WCI   2
GRINNELL*      CLEAR     13   8  80 NW13      30.25R WCI  -2
KNOXVILLE *    CLEAR     14   7  73 NW10      30.25F WCI   1
MARSHALLTOWN   CLEAR     10   6  84 NW10      30.24R WCI  -4
NEWTON *       CLEAR     14   7  73 NW12      30.26S WCI   0
PELLA *        CLEAR     15   8  75 NW9       30.28S WCI   3
PERRY *          N/A     13   9  83 W9        30.30R WCI   1
$$

IAZ004>006-015-016-023>025-035-036-121400-
   NORTH CENTRAL IOWA

CITY           SKY/WX    TMP DP  RH WIND       PRES   REMARKS
ALGONA *       CLOUDY    10   9  92 NW8       30.23S WCI  -1
CLARION *      CLOUDY     9   5  85 W7        30.24S WCI  -3
ESTHERVILLE    CLOUDY     8   7  95 NW6       30.23F WCI  -2
FORT DODGE *   CLOUDY    11   7  84 VRB5      30.26S WCI   3
MASON CITY     CLOUDY     8   3  80 NW10      30.22S WCI  -6
FOREST CITY *    N/A     12   7  79 NW8       30.21S WCI   1
WEBSTER CITY * CLOUDY     9   5  85 NW8       30.23F WCI  -4
IOWA FALLS *     N/A     12   7  81 W8        30.24S WCI   0
$$

IAZ007>011-017>019-026>030-037>042-050>054-066-121400-
   NORTHEAST IOWA

CITY           SKY/WX    TMP DP  RH WIND       PRES   REMARKS
CEDAR RAPIDS   CLEAR     13   9  84 NW12      30.20R WCI  -1
CHARLES CITY * CLEAR     10   7  85 NW12      30.21S WCI  -4
CLINTON *      PTCLDY    15   9  76 NW16      30.17R WCI  -1
DECORAH *      CLEAR     10   9  92 NW9       30.16R WCI  -2
DUBUQUE        CLEAR     12   7  80 NW14      30.14R WCI  -3
MONTICELLO *   PTCLDY    14  10  85 NW14      30.18S WCI  -1
OELWEIN *      CLEAR     10   9  92 NW12      30.19S WCI  -4
WATERLOO       CLEAR     11   6  81 NW7       30.22S WCI   0
$$

IAZ064-065-067-068-078-121400-
   EAST CENTRAL IOWA

CITY           SKY/WX    TMP DP  RH WIND       PRES   REMARKS
DAVENPORT      CLEAR     16   9  74 NW15      30.20R WCI   1
IOWA CITY      CLEAR     17  11  77 NW10      30.24R WCI   5
MT. PLEASANT * CLEAR     18  13  82 NW10      30.23S WCI   6
MUSCATINE *    CLEAR     18  14  86 NW12      30.23R WCI   5
QUAD CITIES    CLEAR     19  11  70 NW16      30.19R WCI   4
$$

IAZ062-063-075>077-085>089-095>099-121400-
   SOUTHEAST IOWA

CITY           SKY/WX    TMP DP  RH WIND       PRES   REMARKS
BURLINGTON     CLEAR     19  15  84 NW9       30.22R WCI   8
FAIRFIELD *    CLEAR     16   9  73 NW14      30.24R WCI   1
FORT MADISON * CLEAR     18  16  93 NW10      30.24R WCI   6
KEOKUK *       PTCLDY    19  16  86 NW9G16    30.24R WCI   9
OSKALOOSA *      N/A     14   9  81 NW10      30.27R WCI   1
OTTUMWA        CLEAR     16   8  71 NW14G22   30.25R WCI   2
WASHINGTON *   CLEAR     16  12  86 NW12G18   30.25R WCI   3
$$

ABBREVIATIONS USED IN REMARKS
   TC - TEMPERATURES IN CELSIUS
  WCI - WIND CHILL INDEX
   HX - HEAT INDEX
  VSB - VISIBILITY
$$




USA.gov is the U.S. government's official web portal to all federal, state and local government web resources and services.